Live-Position
3D-Globus wird geladen...
Über OneWeb SL0320
Group: 3 satellites
Beschreibung wird geladen...
Nächste Überflüge
Passes for default location (London). Set your location on the main map for personalized predictions.
Höhenverlauf
Loading altitude history...
No altitude history available
Zweizeiliger Elementsatz
1 49190U 21083E 26121.11889470 .00000108 00000-0 24196-3 0 9991
2 49190 87.9186 344.8298 0001779 84.2229 275.9106 13.18685094223779
Epoch: 1. Mai 2026 •
Age: 13 hours
Aktueller Status
Höhe 1192.3 km
Geschwindigkeit 7.26 km/s
Subsatellitenpunkt 27.37°N,
109.87°W
Startdatum 14. Sept. 2021
Alter 4.6 years
Typ internet
Startgruppe
Unknown Vehicle •
OneWeb Launch 10 •
34 satellites
OneWeb SL0292
49186
OneWeb SL0303 49187
OneWeb SL0306 49188
OneWeb SL0307 49189
OneWeb SL0321 49191
OneWeb SL0322 49192
OneWeb SL0324 49193
OneWeb SL0325 49194
OneWeb SL0326 49195
OneWeb SL0327 49196
OneWeb SL0328 49197
OneWeb SL0331 49198
OneWeb SL0333 49199
OneWeb SL0334 49200
OneWeb SL0335 49201
OneWeb SL0336 49202
OneWeb SL0337 49203
OneWeb SL0338 49204
OneWeb SL0339 49205
OneWeb SL0340 49206
...and 13 more
Technische Details
Klassifizierung Payload
Masse 148.00 kg
Trockenmasse 140.00 kg
Gesamtmasse 148.00 kg
Länge 1.30 m
Durchmesser 1.00 m
Spannweite 5.00 m
Form Trapezoid+2 pan
Hersteller ONEWUS
Bus-Typ ARROW
Phasenstatus In Orbit
Besitzer/Staat ONEWEBN/UK
Most Searched
Loading...